Regional Weather Roundup
Issued by NWS Little Rock, AR

Home | Current Version | Previous Version | Text Only | Print | Product List | Glossary On
Versions: 1 2 3 4 5 6 7 8 9 10 11 12 13 14 15 16 17 18 19 20 21 22 23 24 25 26 27 28 29 30 31 32
000
ASUS44 KLZK 031605
RWRLZK

WEATHER ROUNDUP FOR ARKANSAS
NATIONAL WEATHER SERVICE LITTLE ROCK AR
1000 AM CST SAT DEC 03 2016

NOTE: "FAIR" INDICATES FEW OR NO CLOUDS BELOW 12,000 FEET WITH NO
SIGNIFICANT WEATHER AND/OR OBSTRUCTIONS TO VISIBILITY.

ARZ001-003-010-029-031700-
NORTHWEST ARKANSAS

CITY           SKY/WX    TMP DP  RH WIND       PRES   REMARKS
FAYETTEVILLE   CLOUDY    47  36  65 CALM      30.26R
FORT SMITH     CLOUDY    48  40  73 E5        30.27S
HARRISON       CLOUDY    43  33  68 SE8       30.30R
BENTONVILLE    CLOUDY    48  30  49 SE12      30.26R
ROGERS         CLOUDY    47  35  63 E9        30.26R
SILOAM SPGS    CLOUDY    48  34  57 SE7       30.25R
HIGHFILL       CLOUDY    49  35  58 SE9       30.25R
SPRINGDALE     CLOUDY    48  36  61 E8        30.27R
$$

ARZ004-005-016-031700-
NORTH CENTRAL ARKANSAS

CITY           SKY/WX    TMP DP  RH WIND       PRES   REMARKS
BATESVILLE     CLOUDY    45  36  70 E7        30.37R
FLIPPIN        CLOUDY    45  30  57 E8        30.31R
MTN HOME       CLOUDY    43  32  65 SE10      30.34R
$$

ARZ040-041-031700-
WEST CENTRAL ARKANSAS

CITY           SKY/WX    TMP DP  RH WIND       PRES   REMARKS
MENA           CLOUDY    46  45  93 E6        30.24F
MOUNT IDA      LGT RAIN  46  43  89 CALM      30.24F
$$

ARZ009-017-025-026-028-031700-
NORTHEAST ARKANSAS

CITY           SKY/WX    TMP DP  RH WIND       PRES   REMARKS
CORNING        FAIR      43  36  75 E6        30.39R
JONESBORO      CLOUDY    45  36  70 E8        30.37R
WALNUT RIDGE   CLOUDY    45  34  65 E6        30.38R
BLYTHEVILLE    CLOUDY    46  35  65 E8        30.37R
$$

ARZ022-023-033-042-044-031700-
CENTRAL ARKANSAS

CITY           SKY/WX    TMP DP  RH WIND       PRES   REMARKS
LITTLE ROCK    LGT RAIN  45  43  93 NE7       30.32F
N LITTLE ROCK    N/A     44  42  90 E5        30.33F
JACKSONVILLE   LGT RAIN  45  43  91 NE6       30.31F
SEARCY         LGT RAIN  46  39  76 E6        30.36R
HOT SPRINGS    LGT RAIN  46  44  93 E7        30.29F
RUSSELLVILLE   LGT RAIN  45  39  79 E6        30.30S
$$

ARZ036-031700-
EAST ARKANSAS

CITY           SKY/WX    TMP DP  RH WIND       PRES   REMARKS
WEST MEMPHIS   CLOUDY    47  33  58 E8        30.34R
$$

ARZ050-053-066-070-073-031700-
SOUTHWEST ARKANSAS

CITY           SKY/WX    TMP DP  RH WIND       PRES   REMARKS
ARKADELPHIA    LGT RAIN  46  45  96 NE6       30.30R
CAMDEN         RAIN      46  41  81 E6        30.28F
TEXARKANA      RAIN      45  44  97 E9        30.22F FOG
EL DORADO      RAIN      46  45  96 NE10      30.26F FOG
DE QUEEN       LGT RAIN  46  45  96 E13       30.22F FOG
$$

ARZ056-057-069-031700-
SOUTHEAST ARKANSAS

CITY           SKY/WX    TMP DP  RH WIND       PRES   REMARKS
PINE BLUFF     LGT RAIN  46  43  89 NE9       30.31S
STUTTGART      CLOUDY    46  39  76 NE7       30.34S
MONTICELLO     LGT RAIN  47  43  86 E5        30.31R

$$






USA.gov is the U.S. government's official web portal to all federal, state and local government web resources and services.